User: anonymous   Login
Location: Del Amo
(33.8464°N, 118.2104°W)
Time: 11:36:34
(UTC+00:00)
Language:

CAS-4A - Orbit

View from above orbital plane
View from above orbital plane
View from above satellite
View from above satellite

Ground track
Ground track

The orbit data is extracted from the following two-line orbital elements,

1 42761U 17034D   24277.21416370  .00046949  00000-0  13600-2 0  9995
2 42761  43.0209 331.7963 0012286   5.9718 354.1281 15.34769118403973
Epoch (UTC): 03 October 2024 05:08:23
Eccentricity: 0.0012286
inclination: 43.0209°
perigee height: 453 km
apogee height: 470 km
right ascension of ascending node: 331.7963°
argument of perigee: 5.9718°
revolutions per day: 15.34769118
mean anomaly at epoch: 354.1281°
orbit number at epoch: 40397

The dashed part of the orbit path shows where the satellite is in the earth's shadow,  

DLR